Weather History for KMFI - October, 2011

Change the Weather History Date:

Monday, October 10, 2011

  Actual Average Record
Temperature  
Mean Temperature 62 °F -  
Max Temperature 75 °F 57 °F 84 °F (1930)
Min Temperature 50 °F 36 °F 17 °F (1964)
Degree Days  
Heating Degree Days 2    
Growing Degree Days 12 (Base 50)    
Moisture  
Dew Point 48 °F    
Average Humidity 63    
Maximum Humidity 89    
Minimum Humidity 37    
Precipitation  
Precipitation 0.00 in - - ()
Sea Level Pressure  
Sea Level Pressure 30.10 in    
Wind  
Wind Speed 5 mph (SSE)    
Max Wind Speed 15 mph    
Max Gust Speed 18 mph    
Visibility 9 miles    
Events      
Averages and records for this station are not official NWS values.
T = Trace of Precipitation, MM = Missing Value Source: NWS Daily Summary

Daily Weather History Graph

Daily Weather History Graph

Search for Another Location

Airport or City:

Trip Planner

Search our weather history database for the weather conditions in past years. The results will help you decide how hot, cold, wet, or windy it might be!

Date:

Astronomy

Oct. 10, 2011 Rise Set
Actual Time 7:09 AM CDT 6:25 PM CDT
Civil Twilight 6:40 AM CDT 6:54 PM CDT
Nautical Twilight 6:06 AM CDT 7:28 PM CDT
Astronomical Twilight 5:32 AM CDT 8:02 PM CDT
Moon 5:29 PM CDT (10/10) 5:49 AM CDT (10/10)
Length of Visible Light 12h 14m
Length of Day
11h 16m
Waxing Gibbous, 98% of the Moon is Illuminated
Oct 10
Waxing Gibbous
Oct 11
Full
Oct 19
Last Quarter
Oct 26
New
Nov 2
First Quarter

Hourly Weather History & Observations

Time (CDT) Temp. Dew Point Humidity Pressure Visibility Wind Dir Wind Speed Gust Speed Precip Events Conditions
12:54 AM 57.0 °F 48.9 °F 74% 30.22 in 10.0 mi ESE 3.5 mph - N/A   Clear
1:54 AM 54.0 °F 48.9 °F 83% 30.21 in 10.0 mi Calm Calm - N/A   Clear
2:54 AM 53.1 °F 48.0 °F 83% 30.20 in 10.0 mi Calm Calm - N/A   Clear
3:54 AM 50.0 °F 46.9 °F 89% 30.20 in 8.0 mi Calm Calm - N/A   Clear
4:54 AM 51.1 °F 46.9 °F 86% 30.20 in 8.0 mi East 3.5 mph - N/A   Clear
5:54 AM 51.1 °F 48.0 °F 89% 30.20 in 7.0 mi East 3.5 mph - N/A   Clear
6:54 AM 50.0 °F 46.9 °F 89% 30.19 in 6.0 mi ENE 4.6 mph - N/A   Clear
8:54 AM 55.9 °F 50.0 °F 80% 30.19 in 5.0 mi ESE 5.8 mph - N/A   Haze
9:54 AM 63.0 °F 52.0 °F 67% 30.18 in 9.0 mi SSE 5.8 mph - N/A   Clear
10:54 AM 68.0 °F 50.0 °F 52% 30.15 in 10.0 mi SE 5.8 mph - N/A   Clear
11:54 AM 71.1 °F 46.0 °F 41% 30.13 in 10.0 mi SE 9.2 mph - N/A   Clear
12:54 PM 73.9 °F 48.9 °F 41% 30.10 in 10.0 mi South 11.5 mph - N/A   Clear
1:54 PM 73.9 °F 48.9 °F 41% 30.07 in 10.0 mi South 15.0 mph - N/A   Clear
2:54 PM 75.9 °F 48.0 °F 37% 30.04 in 10.0 mi South 11.5 mph 18.4 mph N/A   Clear
3:54 PM 73.0 °F 45.0 °F 37% 30.03 in 10.0 mi South 10.4 mph - N/A   Clear
4:54 PM 71.1 °F 46.9 °F 42% 30.02 in 10.0 mi SSE 8.1 mph - N/A   Clear
5:54 PM 69.1 °F 48.0 °F 47% 30.01 in 10.0 mi SSE 5.8 mph - N/A   Clear
6:54 PM 64.0 °F 46.9 °F 54% 30.01 in 10.0 mi SSE 4.6 mph - N/A   Clear
7:54 PM 63.0 °F 48.0 °F 58% 30.01 in 10.0 mi SSE 4.6 mph - N/A   Clear
8:54 PM 63.0 °F 48.9 °F 60% 30.00 in 10.0 mi SSE 5.8 mph - N/A   Clear
9:54 PM 62.1 °F 48.9 °F 62% 30.00 in 10.0 mi South 6.9 mph - N/A   Clear
10:54 PM 59.0 °F 48.9 °F 69% 30.00 in 10.0 mi South 4.6 mph - N/A   Clear
11:54 PM 57.9 °F 48.9 °F 72% 29.99 in 10.0 mi South 5.8 mph - N/A   Clear